Grand Rapids, MI

2:03 AM EST on February 14, 2016 (GMT -0500)
Gerald R. Ford International

Weather History for KGRR - August, 2013

Change the Weather History Date:

Wednesday, August 7, 2013

  Actual Average Record
Temperature  
Mean Temperature 74 °F 72 °F  
Max Temperature 83 °F 82 °F 97 °F (1918)
Min Temperature 64 °F 62 °F 46 °F (1976)
Degree Days  
Heating Degree Days 0 0  
Month to date heating degree days 4 0  
Since 1 June heating degree days 55 51  
Since 1 July heating degree days 15 6  
Cooling Degree Days 9 7  
Month to date cooling degree days 27 49  
Year to date cooling degree days 516 480  
Since 1 June cooling degree days 434 433  
Growing Degree Days 23 (Base 50)    
Moisture  
Dew Point 65 °F    
Average Humidity 73    
Maximum Humidity 84    
Minimum Humidity 62    
Precipitation  
Precipitation 0.21 in 0.11 in 0.97 in (1959)
Month to date precipitation 0.22 0.80  
Year to date precipitation 30.64 21.93  
Snow  
Snow 0.00 in 0.00 in 0.00 in ()
Month to date snowfall 0.0 0.0  
Since 1 June snowfall 0.0 0.0  
Since 1 July snowfall 0.0 0.0  
Snow Depth 0.00 in    
Sea Level Pressure  
Sea Level Pressure 29.86 in    
Wind  
Wind Speed 9 mph (WSW)    
Max Wind Speed 21 mph    
Max Gust Speed 25 mph    
Visibility 9 miles    
Events Rain , Thunderstorm    
T = Trace of Precipitation, MM = Missing Value Source: NWS Daily Summary

Daily Weather History Graph

Daily Weather History Graph

Search for Another Location

Airport or City:

Trip Planner

Search our weather history database for the weather conditions in past years. The results will help you decide how hot, cold, wet, or windy it might be!

Date:

Astronomy

Aug. 07, 2013 Rise Set
Actual Time 6:39 AM EDT 8:55 PM EDT
Civil Twilight 6:08 AM EDT 9:26 PM EDT
Nautical Twilight 5:29 AM EDT 10:05 PM EDT
Astronomical Twilight 4:46 AM EDT 10:47 PM EDT
Moon 7:30 AM EDT (8/7) 8:58 PM EDT (8/7)
Length of Visible Light 15h 17m
Length of Day
14h 15m
New Moon, 1% of the Moon is Illuminated
Aug 7
New Moon
Aug 14
First Quarter
Aug 20
Full
Aug 28
Last Quarter
Sep 5
New

Hourly Weather History & Observations

Time (EDT) Temp. Heat Index Dew Point Humidity Pressure Visibility Wind Dir Wind Speed Gust Speed Precip Events Conditions
12:53 AM 71.1 °F - 66.0 °F 84% 29.86 in 8.0 mi South 9.2 mph - N/A   Scattered Clouds
1:53 AM 71.1 °F - 66.0 °F 84% 29.86 in 8.0 mi South 6.9 mph - N/A   Mostly Cloudy
2:53 AM 71.1 °F - 66.9 °F 87% 29.85 in 8.0 mi SSW 6.9 mph - N/A   Mostly Cloudy
3:53 AM 72.0 °F - 66.9 °F 84% 29.83 in 8.0 mi SSW 12.7 mph - N/A   Clear
4:53 AM 71.1 °F - 66.9 °F 87% 29.81 in 6.0 mi SW 9.2 mph - N/A   Clear
5:17 AM 71.6 °F - 66.2 °F 83% 29.82 in 6.0 mi SSW 9.2 mph - N/A Thunderstorm Scattered Clouds
5:41 AM 71.6 °F - 66.2 °F 83% 29.85 in 7.0 mi NNW 20.7 mph 25.3 mph 0.01 in Thunderstorm Mostly Cloudy
5:48 AM 69.8 °F - 59.0 °F 68% 29.87 in 9.0 mi WNW 11.5 mph 25.3 mph 0.01 in Rain Light Rain
5:53 AM 69.1 °F - 59.0 °F 70% 29.85 in 10.0 mi NW 13.8 mph 19.6 mph 0.01 in Rain Light Rain
6:26 AM 66.2 °F - 60.8 °F 83% 29.84 in 5.0 mi Calm Calm - 0.01 in Rain , Thunderstorm Thunderstorms and Rain
6:53 AM 64.9 °F - 61.0 °F 87% 29.85 in 10.0 mi SW 3.5 mph - 0.04 in Thunderstorm Thunderstorm
7:53 AM 64.9 °F - 62.1 °F 90% 29.87 in 3.0 mi SSE 5.8 mph - 0.13 in Rain , Thunderstorm Thunderstorms and Rain
8:41 AM 64.4 °F - 62.6 °F 94% 29.83 in 10.0 mi South 5.8 mph - 0.03 in Rain Light Rain
8:53 AM 66.0 °F - 62.1 °F 87% 29.84 in 10.0 mi South 8.1 mph - 0.03 in   Mostly Cloudy
9:53 AM 69.1 °F - 63.0 °F 81% 29.83 in 10.0 mi South 15.0 mph - N/A   Scattered Clouds
10:53 AM 72.0 °F - 64.0 °F 76% 29.84 in 10.0 mi South 13.8 mph - N/A   Scattered Clouds
11:53 AM 75.0 °F - 66.0 °F 73% 29.85 in 10.0 mi South 11.5 mph - N/A   Mostly Cloudy
12:53 PM 77.0 °F - 66.9 °F 71% 29.85 in 10.0 mi SW 10.4 mph - N/A   Mostly Cloudy
1:53 PM 79.0 °F - 68.0 °F 69% 29.84 in 10.0 mi SW 10.4 mph - N/A   Overcast
2:53 PM 80.1 °F 82.7 °F 68.0 °F 67% 29.84 in 10.0 mi SW 10.4 mph - N/A   Mostly Cloudy
3:53 PM 82.9 °F 86.5 °F 69.1 °F 63% 29.83 in 10.0 mi SW 10.4 mph - N/A   Mostly Cloudy
4:53 PM 82.9 °F 86.5 °F 69.1 °F 63% 29.84 in 10.0 mi West 11.5 mph - 0.00 in   Mostly Cloudy
5:53 PM 81.0 °F 83.8 °F 68.0 °F 65% 29.84 in 9.0 mi West 12.7 mph - N/A   Mostly Cloudy
6:53 PM 81.0 °F 83.3 °F 66.9 °F 62% 29.85 in 10.0 mi WNW 9.2 mph - N/A   Partly Cloudy
7:53 PM 79.0 °F - 64.9 °F 62% 29.87 in 10.0 mi NW 9.2 mph - N/A   Scattered Clouds
8:53 PM 75.0 °F - 63.0 °F 66% 29.88 in 10.0 mi NNW 6.9 mph - N/A   Scattered Clouds
9:53 PM 71.1 °F - 61.0 °F 70% 29.91 in 10.0 mi NNW 4.6 mph - N/A   Partly Cloudy
10:53 PM 69.1 °F - 61.0 °F 75% 29.94 in 10.0 mi NW 5.8 mph - N/A   Clear
11:53 PM 68.0 °F - 60.1 °F 76% 29.95 in 10.0 mi North 6.9 mph - N/A   Clear